sat.trackr.live / text

‹ back to catalog

ION SCV-020

NORAD 64545 · 2025-135T

PAYLOAD ACTIVE UNKNOWN

§ Identity

Operator
Country
IT
Launch date
2025-06-23
Launch site
AFWTR
Launch vehicle
Mass (kg)
RCS (m²)

External: N2YO · Heavens-Above · Gunter

§ Orbital elements

Epoch: 2026-05-24T20:28:18.602112Z

Period
94.78 min
Inclination
97.4610°
Eccentricity
0.0007469
Mean motion
15.19300365 rev/d
Perigee alt
502.8 km
Apogee alt
513.1 km
Semi-major
6,886.1 km
B*
1.2462e-4
RAAN
260.0718°
Arg perigee
229.9392°
Mean anomaly
130.1188°
Rev number
5,130

§ Raw data

ION SCV-0201 64545U 25135T   26144.85299308  .00002563  00000+0  12462-3 0  99942 64545  97.4610 260.0718 0007469 229.9392 130.1188 15.19300365 51303

JSON: /api/v1/satellites/64545 · /tle

For live sub-satellite position, see the globe view (requires WebGL).

§ Visibility from observer

Set your observer location to see the next 7 days of passes ≥ 10°. The values pass through the URL so the page stays shareable.

No JS? Fill the form by hand. The geolocation button needs JavaScript.

§ Radio — SatNOGS DB

ModeDescriptionDownlinkUplink
FSK AX.100 Mode 5 Mode U - FSK1k2 AX.100 401.415 MHz
FM S-band telemetry 2.256 GHz

2 transmitters · refreshed weekly from db.satnogs.org